INTELSAT 34 (IS-34)

Last updated on Fri Oct 11 2024 00:02:40 GMT+0000 (Coordinated Universal Time)

1 40874U 15039A 24284.39226332 -.00000280 00000+0 00000+0 0 9990 2 40874 0.0175 237.2610 0001054 164.9207 63.0388 1.00269832 33463
UTC large
Height (km)
Speed (km/s)
/
Latitude / Longitude
Inclination (degrees)
Orbital Period (minutes)
Azimuth
Elevation
Range (km)
Doppler Factor

Next 0 passes for location: London (51.5072 / 0.1276)

Sorry there are no passes over London.